星链-34288 (STARLINK-34288)

导读

STARLINK-34288是美国于2025年6月28日发射的星链系列卫星,星链计划是美国太空探索技术公司(SpaceX)推出的低轨卫星互联网星座项目,旨在构建全球卫星互联网,为全球偏远地区等提供高速网络接入服务,该卫星入轨后将与其他星链卫星协同,进一步完善星座网络覆盖与服务能力。

基本信息
目录编号:
64673
目录名称:
STARLINK-34288
国际标识:
2025-139K
轨道中心:
EARTH
卫星名称:
星链-34288
卫星全名:
星链-34288 (STARLINK-34288)
卫星状态:
在轨 (已飞行350 天)
发射日期:
2025-06-28 UTC
国别 :
美国 (US)
星等 :
--
轨道信息
数据来源 国际轨道数据
星历时间: 2026-06-13T16:44:48+0800
14小时前
查看轨道信息
半长轴: 6840.814km
偏心率: 0.0000878
轨道倾角: 53.159°
近地点辐角 100.020°
升交点赤经 41.135°
平近点角 260.090°
近地点: 462.076km
远地点: 463.278km
周期: 93.847分钟
每日圈数: 15.34409
详细信息
固有亮度:
5
最大亮度:
2.5
卫星平台:
Starlink V1.0
覆盖范围:
全球
运营商:
太空探索技术公司
运营商所在国:
美国
制造商(研发单位):
太空探索技术公司
制造商所在国:
美国
使用方式:
暂无
卫星简介
Starlink 计划是 SpaceX 推出的全球卫星互联网项目,通过发射低轨道卫星,为全球尤其是偏远地区提供高速、低延迟的互联网服务。自 2019 年起,Starlink 已部署数千颗卫星,旨在缩小全球数字鸿沟,推动互联网普及。该项目还为军事、航空等行业提供通信支持,带来广泛经济效益。
2D轨道图
3D轨道图
轨道高度分析图
轨道倾角分析图
轨道综合分析图
查看轨道综合分析图